Home   Weather   Bahawalpur   Past weeks

Flag for Pakistan Past Weather in Bahawalpur, Pakistan — Yesterday and Last 2 Weeks

Now
77 °F

Haze.


Feels Like: 78 °F
Forecast: 60 / 80 °F
Wind: 5 mph from South

Location: Multan Airport

Current Time: Dec 4, 2016 at 1:09:42 pm

Latest Report: Dec 4, 2016 at 11:55 am


Visibility: 2 mi

Pressure: 30.12 "Hg

Humidity: 32%

Dew Point: 45 °F

Location of BahawalpurLocation

Past Weather in Bahawalpur — Graph

°F

Bahawalpur Temperature Yesterday

Maximum temperature yesterday: 81 °F (at 1:55 pm)
Minimum temperature yesterday: 55 °F (at 3:51 am)
Average temperature yesterday: 67 °F

High & Low Weather Summary for the Past Weeks

 TemperatureHumidityPressure
High82 °F (Nov 19, 2:55 pm)88% (Nov 20, 4:54 am)30.15 "Hg (Nov 20, 4:54 am)
Low54 °F (Dec 2, 6:55 am)28% (Dec 2, 4:00 pm)29.80 "Hg (Nov 19, 2:55 pm)
Average67 °F65%29.97 "Hg
* Reported Nov 19 11:51 am — Dec 4 11:55 am, Bahawalpur, Weather by CustomWeather, © 2016

Note: Actual official high and low records may vary slightly from our data, if they occured in-between our weather recording intervals... More about our weather records

Advertising

Bahawalpur Weather History for the Previous 24 Hours

Scroll right to see more
 ConditionsComfort  
Time TempWeatherWind HumidityBarometerVisibility
11:55 am
Sun, Dec 4
77 °FHaze.5 mph32%30.12 "Hg2 mi
10:55 am73 °FHaze.No wind38%30.15 "Hg2 mi
9:55 am68 °FPassing clouds.No wind56%30.15 "Hg2 mi
8:55 am59 °FFog.No wind82%30.12 "Hg1 mi
7:55 am54 °FFog.No wind82%30.12 "Hg1 mi
6:55 am55 °FFog.No wind82%30.04 "Hg1 mi
5:55 am55 °FFog.No wind82%30.09 "Hg1 mi
4:55 am55 °FFog.No wind82%30.07 "Hg1 mi
2:55 am57 °FClear.No wind77%30.07 "Hg1 mi
1:55 am59 °FClear.No wind77%30.07 "Hg1 mi
12:55 am61 °FClear.No wind72%30.09 "Hg1 mi
11:55 pm
Sat, Dec 3
63 °FClear.No wind77%30.09 "Hg1 mi
10:55 pm63 °FClear.No wind77%30.09 "Hg1 mi
9:55 pm64 °FClear.No wind73%30.09 "Hg1 mi
8:55 pm66 °FClear.No wind68%30.09 "Hg2 mi
7:52 pm68 °FClear.No wind64%30.07 "Hg2 mi
6:50 pm70 °FClear.No wind64%30.07 "Hg2 mi
5:51 pm75 °FPassing clouds.No wind50%30.04 "Hg2 mi
4:52 pm77 °FHaze.5 mph44%30.04 "Hg2 mi
3:51 pm79 °FHaze.7 mph39%30.04 "Hg2 mi
2:53 pm81 °FHaze.5 mph37%30.04 "Hg2 mi
1:55 pm81 °FHaze.7 mph32%30.04 "Hg2 mi
Weather by CustomWeather, © 2016

See weather overviewHow to use our weather pages